Regional Weather Roundup
Issued by NWS

Home | Current Version | Previous Version | Text Only | Print | Product List | Glossary On
Versions: 1 2 3 4 5 6 7 8 9 10 11 12 13 14 15 16 17 18 19 20 21 22 23 24 25 26 27 28 29 30 31 32 33 34 35 36 37 38 39 40 41 42 43 44 45 46 47 48 49 50
000
ASUS44 KBMX 310610
RWRAL

ALABAMA REGIONAL WEATHER ROUNDUP
NATIONAL WEATHER SERVICE BIRMINGHAM AL
100 AM CDT SUN AUG 31 2014

NOTE: "FAIR" INDICATES FEW OR NO CLOUDS BELOW 12,000 FEET
WITH NO SIGNIFICANT WEATHER AND/OR OBSTRUCTIONS TO VISIBILITY.

THE REMARK "TC" DENOTES TEMPERATURE IN DEGREES CELSIUS.

ALZ001>011-014-016>018-020-310700-
NORTH ALABAMA

CITY           SKY/WX    TMP DP  RH WIND       PRES   REMARKS
MUSCLE SHOALS  FAIR      71  68  90 SE5       30.09F
6HR MIN TEMP:  71; 6HR MAX TEMP:  74; 6HR PCP:  0.04;

HUNTSVILLE     FAIR      72  71  97 SE5       30.10F
6HR MIN TEMP:  72; 6HR MAX TEMP:  73; 6HR PCP:  0.18;

DECATUR        FAIR      71  70  96 SE5       30.10F
6HR MIN TEMP:  70; 6HR MAX TEMP:  73; 6HR PCP:  0.12;

HALEYVILLE     CLOUDY    70  70 100 SE5       30.12F FOG
6HR MIN TEMP:  69; 6HR MAX TEMP:  70; 6HR PCP:  0.02;

GADSDEN        FAIR      70  66  88 CALM      30.14S
6HR MIN TEMP:  70; 6HR MAX TEMP:  73;

$$

ALZ012-013-022-023-030>036-040>044-310700-
WEST CENTRAL ALABAMA

CITY           SKY/WX    TMP DP  RH WIND       PRES   REMARKS
TUSCALOOSA     FAIR      73  71  93 SE3       30.09S
6HR MIN TEMP:  73; 6HR MAX TEMP:  75;

$$

ALZ015-024>027-033>036-040>044-310700-
CENTRAL ALABAMA

CITY           SKY/WX    TMP DP  RH WIND       PRES   REMARKS
BIRMINGHAM     FAIR      72  70  93 E3        30.13F
6HR MIN TEMP:  72; 6HR MAX TEMP:  75; 6HR PCP: TRACE;

MONTGOMERY     FAIR      74  71  91 CALM      30.12S
6HR MIN TEMP:  74; 6HR MAX TEMP:  78;

SHELBY CO ARPT FAIR      71  69  93 CALM      30.13S
6HR MIN TEMP:  71; 6HR MAX TEMP:  73; 6HR PCP: TRACE;

MAXWELL AFB    FAIR      73  73 100 CALM      30.12R
6HR MIN TEMP:  73; 6HR MAX TEMP:  77;

GREENVILLE     NOT AVBL
$$

ALZ019-021-028-029-037-038-045>048-310700-
EAST CENTRAL ALABAMA

CITY           SKY/WX    TMP DP  RH WIND       PRES   REMARKS
ANNISTON       FAIR      72  70  93 E5        30.14S
6HR MIN TEMP:  72; 6HR MAX TEMP:  74; 6HR PCP:  0.02;

ALEXANDER CITY FAIR      76  70  83 CALM      30.14S
6HR MIN TEMP:  76; 6HR MAX TEMP:  81;

AUBURN         FAIR      72  68  88 CALM      30.18S
6HR MIN TEMP:  72; 6HR MAX TEMP:  79; 6HR PCP:  0.12;

$$

ALZ051>064-310700-
SOUTHWEST ALABAMA

CITY           SKY/WX    TMP DP  RH WIND       PRES   REMARKS
MOBILE         FAIR      75  74  96 NE5       30.08S
6HR MIN TEMP:  75; 6HR MAX TEMP:  79; 6HR PCP: TRACE;

BROOKLEY FIELD RAIN      80  78  94 S6        30.08F
6HR MIN TEMP:  75; 6HR MAX TEMP:  79; 6HR PCP:  0.13;

EVERGREEN      FAIR      76  73  91 CALM      30.11S
6HR MIN TEMP:  76; 6HR MAX TEMP:  86;

$$

ALZ049-050-065>069-310700-
SOUTHEAST ALABAMA

CITY           SKY/WX    TMP DP  RH WIND       PRES   REMARKS
DOTHAN         FAIR      75  72  90 CALM      30.16S
6HR MIN TEMP:  74; 6HR MAX TEMP:  85;

OZARK          FAIR      76  73  92 NE3       30.12S
6HR MIN TEMP:  76; 6HR MAX TEMP:  85;

TROY           FAIR      75  72  90 CALM      30.13S
6HR MIN TEMP:  74; 6HR MAX TEMP:  79;

EUFAULA        FAIR      74  72  93 CALM      30.12S
6HR MIN TEMP:  74; 6HR MAX TEMP:  82;

$$



USA.gov is the U.S. government's official web portal to all federal, state and local government web resources and services.